Regional Weather Roundup
Issued by NWS

Home | Current Version | Previous Version | Graphics & Text | Print | Product List | Glossary On
Versions: 1 2 3 4 5 6 7 8 9 10 11 12 13 14 15 16 17 18 19 20 21 22 23 24 25 26 27 28 29 30 31 32 33 34 35 36 37 38 39 40 41 42 43 44 45 46 47 48 49 50
000
ASUS45 KSLC 050910
RWRUT

UTAH REGIONAL WEATHER ROUNDUP
NATIONAL WEATHER SERVICE SALT LAKE CITY UT
200 AM MST FRI FEB 05 2016

UTZ001>011-023>025-051000-

NORTHERN UTAH

CITY           SKY/WX    TMP DP  RH WIND       PRES   REMARKS
BRIGHAM CITY   CLOUDY    27  24  88 CALM      30.50S
HILL AFB       FLURRIES  27  21  80 CALM      30.47R
LOGAN          CLOUDY    24  23  96 S3        30.48S FOG
OGDEN          CLOUDY    26  25  96 CALM      30.48R
PROVO AIRPORT  CLOUDY    21  19  93 CALM      30.50S
SALT LAKE CITY LGT SNOW  27  24  89 S6        30.49R FOG     WCI  20
VERNAL         CLOUDY     7   3  84 CALM      30.42S
WENDOVER       CLEAR     19  16  86 CALM      30.49S
HEBER CITY     LGT SNOW  21  19  93 CALM      30.43R
WEST JORDAN    CLOUDY    25  25 100 S7        30.49R WCI  17

$$

UTZ012>022-026-027-051000-

SOUTHERN/CENTRAL UTAH

CITY           SKY/WX    TMP DP  RH WIND       PRES   REMARKS
BLANDING       CLEAR      9   6  91 NE12      30.44R WCI  -6
BRYCE CANYON   PTCLDY    10   7  87 VRB6      30.37S WCI   0
CEDAR CITY     PTCLDY    11   8  88 SE6       30.43S WCI   1
DELTA          CLOUDY    12  10  92 CALM      30.50S
HANKSVILLE     MOCLDY     0  -4  85 CALM      30.50F
MILFORD        MOCLDY    -1  -5  82 SW6       30.48S WCI -13
MOAB/CYNLANDS  CLOUDY    10   6  84 CALM      30.47S
PRICE          CLEAR      7   3  84 NW5       30.36F WCI  -2
ST GEORGE      PTSUNNY   32  21  64 S3        30.48S
KANAB          CLEAR     32  21  64 NE6       30.45R WCI  26

$$

REGIONAL REPORTS     COLORADO/ARIZONA

CITY           SKY/WX    TMP DP  RH WIND       PRES   REMARKS
CRAIG, CO      CLOUDY    15  12  88 CALM      30.34R
GRAND JUNCTION CLOUDY    11  10  96 E5        30.45S WCI   3
RIFLE          LGT SNOW  16  13  88 CALM      30.40S FOG
MONTROSE       CLOUDY    15   9  76 S3        30.43S
CORTEZ         CLOUDY     3  -1  83 E8        30.35S WCI -10
PAGE, AZ       CLEAR     27  20  75 E3        30.42S
GRAND CANYON   NOT AVBL
KINGMAN        CLEAR     33  20  58 E8        30.39S WCI  26
FLAGSTAFF      CLEAR     23  14  68 NE3       30.32S

$$

REGIONAL REPORTS    NEVADA/IDAHO/WYOMING

CITY           SKY/WX    TMP DP  RH WIND       PRES   REMARKS
LAS VEGAS, NV  PTCLDY    43  25  49 CALM      30.40F
ELY            PTCLDY     4   0  83 S14       30.47R WCI -14
ELKO           CLOUDY    14  11  87 CALM      30.51F
POCATELLO, ID  CLOUDY    22  18  85 NE6       30.47R WCI  14
BURLEY         CLOUDY    32  28  85 CALM      30.44S
EVANSTON, WY   CLOUDY    16  12  84 W16       30.35R WCI   1
ROCK SPRINGS   CLOUDY    13   9  84 W15       30.29S WCI  -3

$$



USA.gov is the U.S. government's official web portal to all federal, state and local government web resources and services.